Weather History for EBFS - August, 2013

Change the Weather History Date:

Wednesday, August 21, 2013

  Actual Average Record
Temperature  
Mean Temperature 61 °F -  
Max Temperature 74 °F 62 °F 82 °F (1997)
Min Temperature 48 °F 52 °F 45 °F (2014)
Degree Days  
Heating Degree Days 4    
Growing Degree Days 11 (Base 50)    
Moisture  
Dew Point 48 °F    
Average Humidity 61    
Maximum Humidity 93    
Minimum Humidity 24    
Precipitation  
Precipitation 0.00 in - - ()
Sea Level Pressure  
Sea Level Pressure 30.27 in    
Wind  
Wind Speed 3 mph ()    
Max Wind Speed 7 mph    
Max Gust Speed -    
Visibility 7.6 miles    
Events      
Averages and records for this station are not official NWS values.
T = Trace of Precipitation, MM = Missing Value Source: Averaged Metar Reports

Daily Weather History Graph

Daily Weather History Graph

Search for Another Location

Airport or City:

Trip Planner

Search our weather history database for the weather conditions in past years. The results will help you decide how hot, cold, wet, or windy it might be!

Date:

Astronomy

Aug. 21, 2013 Rise Set
Actual Time 6:39 AM CEST 8:48 PM CEST
Civil Twilight 6:04 AM CEST 9:23 PM CEST
Nautical Twilight 5:20 AM CEST 10:07 PM CEST
Astronomical Twilight 4:29 AM CEST 10:57 PM CEST
Moon 8:35 PM CEST (8/21) 7:09 AM CEST (8/21)
Length of Visible Light 15h 19m
Length of Day
14h 08m
Full, 100% of the Moon is Illuminated
Aug 21
Full
Aug 28
Last Quarter
Sep 5
New
Sep 12
First Quarter
Sep 19
Full

Hourly Weather History & Observations

Time (CEST) Temp. Dew Point Humidity Pressure Visibility Wind Dir Wind Speed Gust Speed Precip Events Conditions
12:25 AM 57.2 °F 46.4 °F 67% 30.36 in 6.2 mi Variable 2.3 mph - N/A   Partly Cloudy
12:55 AM 57.2 °F 48.2 °F 72% 30.36 in 6.2 mi Variable 2.3 mph - N/A   Partly Cloudy
1:25 AM 55.4 °F 48.2 °F 77% 30.33 in 6.2 mi Variable 2.3 mph - N/A   Partly Cloudy
1:55 AM 53.6 °F 48.2 °F 82% 30.33 in 6.2 mi Variable 2.3 mph - N/A   Partly Cloudy
2:00 AM 54 °F 47 °F 72% 30.37 in 16 mi 2.2 mph - -   Clear
2:25 AM 53.6 °F 46.4 °F 77% 30.33 in 6.2 mi Variable 2.3 mph - N/A   Partly Cloudy
2:55 AM 51.8 °F 48.2 °F 88% 30.33 in 6.2 mi Variable 2.3 mph - N/A   Partly Cloudy
3:25 AM 51.8 °F 46.4 °F 82% 30.33 in 6.2 mi Variable 2.3 mph - N/A   Partly Cloudy
3:55 AM 53.6 °F 46.4 °F 77% 30.33 in 6.2 mi Variable 1.2 mph - N/A   Partly Cloudy
4:25 AM 53.6 °F 46.4 °F 77% 30.30 in 6.2 mi Variable 2.3 mph - N/A   Partly Cloudy
4:55 AM 50.0 °F 46.4 °F 87% 30.30 in 6.2 mi Variable 2.3 mph - N/A   Partly Cloudy
5:00 AM 51 °F 46 °F 77% 30.35 in 16 mi 2.2 mph - -   Clear
5:25 AM 50.0 °F 46.4 °F 87% 30.30 in 6.2 mi Variable 1.2 mph - N/A   Partly Cloudy
5:55 AM 50.0 °F 44.6 °F 82% 30.30 in 6.2 mi Variable 2.3 mph - N/A   Partly Cloudy
6:22 AM 50.0 °F 46.4 °F 87% 30.30 in 6.2 mi Variable 2.3 mph - N/A   Partly Cloudy
6:25 AM 50.0 °F 46.4 °F 87% 30.30 in 6.2 mi Variable 2.3 mph - N/A   Partly Cloudy
6:55 AM 48.2 °F 46.4 °F 93% 30.30 in 6.2 mi Variable 2.3 mph - N/A   Partly Cloudy
7:25 AM 50.0 °F 46.4 °F 87% 30.30 in 6.2 mi Variable 1.2 mph - N/A   Partly Cloudy
7:55 AM 51.8 °F 48.2 °F 88% 30.30 in 6.2 mi Variable 1.2 mph - N/A   Scattered Clouds
8:00 AM 52 °F 47 °F 79% 30.34 in 16 mi 2.2 mph - -   Clear
8:55 AM 57.2 °F 48.2 °F 72% 30.30 in 6.2 mi Variable 1.2 mph - N/A   Scattered Clouds
9:25 AM 60.8 °F 46.4 °F 59% 30.30 in 6.2 mi Variable 2.3 mph - N/A   Scattered Clouds
9:55 AM 62.6 °F 46.4 °F 55% 30.30 in 6.2 mi ESE 5.8 mph - N/A   Partly Cloudy
10:25 AM 62.6 °F 46.4 °F 55% 30.30 in 6.2 mi ESE 4.6 mph - N/A   Partly Cloudy
10:55 AM 64.4 °F 46.4 °F 52% 30.30 in 6.2 mi East 4.6 mph - N/A   Partly Cloudy
11:00 AM 65 °F 46 °F 39% 30.31 in 16 mi East 4.5 mph - -   Clear
11:25 AM 66.2 °F 46.4 °F 49% 30.30 in 6.2 mi ESE 4.6 mph - N/A   Partly Cloudy
11:55 AM 68.0 °F 46.4 °F 46% 30.30 in 6.2 mi SE 4.6 mph - N/A   Partly Cloudy
12:25 PM 68.0 °F 48.2 °F 49% 30.30 in 6.2 mi ENE 6.9 mph - N/A   Partly Cloudy
12:55 PM 68.0 °F 46.4 °F 46% 30.27 in 6.2 mi East 6.9 mph - N/A   Partly Cloudy
1:55 PM 69.8 °F 48.2 °F 46% 30.27 in 6.2 mi ESE 6.9 mph - N/A   Partly Cloudy
2:00 PM 70 °F 48 °F 34% 30.27 in 16 mi ESE 6.7 mph - -   Clear
2:25 PM 71.6 °F 50.0 °F 46% 30.27 in 6.2 mi SE 3.5 mph - N/A   Partly Cloudy
2:55 PM 71.6 °F 48.2 °F 43% 30.24 in 6.2 mi SE 4.6 mph - N/A   Partly Cloudy
3:25 PM 71.6 °F 50.0 °F 46% 30.24 in 6.2 mi Variable 2.3 mph - N/A   Partly Cloudy
3:55 PM 71.6 °F 46.4 °F 41% 30.24 in 6.2 mi Variable 2.3 mph - N/A   Partly Cloudy
4:25 PM 73.4 °F 46.4 °F 38% 30.21 in 6.2 mi ENE 4.6 mph - N/A   Partly Cloudy
4:55 PM 73.4 °F 44.6 °F 36% 30.21 in 6.2 mi ENE 4.6 mph - N/A   Partly Cloudy
5:00 PM 74 °F 44 °F 24% 30.21 in 16 mi ENE 4.5 mph - -   Clear
5:25 PM 73.4 °F 46.4 °F 38% 30.21 in 6.2 mi North 3.5 mph - N/A   Partly Cloudy
5:51 PM 73.4 °F 46.4 °F 38% 30.21 in 6.2 mi ENE 4.6 mph - N/A   Partly Cloudy
5:55 PM 73.4 °F 50.0 °F 44% 30.21 in 6.2 mi ESE 3.5 mph - N/A   Clear
6:25 PM 71.6 °F 44.6 °F 38% 30.21 in 6.2 mi Variable 2.3 mph - N/A   Partly Cloudy
6:55 PM 71.6 °F 48.2 °F 43% 30.21 in 6.2 mi NNE 3.5 mph - N/A   Partly Cloudy
7:25 PM 69.8 °F 48.2 °F 46% 30.18 in 6.2 mi North 3.5 mph - N/A   Partly Cloudy
7:55 PM 68.0 °F 51.8 °F 56% 30.18 in 6.2 mi North 4.6 mph - N/A   Partly Cloudy
8:00 PM 68 °F 51 °F 44% 30.20 in 16 mi North 4.5 mph - -   Clear
8:25 PM 68.0 °F 50.0 °F 52% 30.18 in 6.2 mi NNE 4.6 mph - N/A   Scattered Clouds
8:55 PM 64.4 °F 50.0 °F 59% 30.21 in 6.2 mi North 3.5 mph - N/A   Scattered Clouds
9:25 PM 64.4 °F 50.0 °F 59% 30.21 in 6.2 mi Variable 1.2 mph - N/A   Scattered Clouds
9:55 PM 62.6 °F 51.8 °F 68% 30.21 in 6.2 mi Variable 1.2 mph - N/A   Partly Cloudy
10:25 PM 62.6 °F 50.0 °F 63% 30.18 in 6.2 mi Variable 2.3 mph - N/A   Partly Cloudy
10:55 PM 62.6 °F 50.0 °F 63% 30.18 in 6.2 mi Variable 3.5 mph - N/A   Partly Cloudy
11:00 PM 62 °F 49 °F 54% 30.20 in 16 mi 2.2 mph - -   Clear
11:25 PM 62.6 °F 50.0 °F 63% 30.18 in 6.2 mi Variable 1.2 mph - N/A   Partly Cloudy
11:55 PM 60.8 °F 50.0 °F 68% 30.18 in 6.2 mi Variable 1.2 mph - N/A   Partly Cloudy